S-NET C

Last updated on Fri Dec 29 2023 00:03:02 GMT+0000 (Coordinated Universal Time)

1 43189U 18014K 23361.73977310 .00006469 00000+0 49251-3 0 9999 2 43189 97.6093 261.7015 0012966 217.0781 142.9549 15.02363174321140
UTC large
Height (km)
Speed (km/s)
/
Latitude / Longitude
Inclination (degrees)
Orbital Period (minutes)
Azimuth
Elevation
Range (km)
Doppler Factor

Next 0 passes for location: London (51.5072 / 0.1276)

Sorry there are no passes over London.
S-NET C